Tracking 30995 objects as of 5-Jul-2025
HD Live streaming from Space Station
objects crossing your sky now

SL-16 DEB

Track SL-16 DEB now!
10-day predictions


NORAD ID: 28355
Int'l Code: 2004-021D
Perigee: 846.5 km
Apogee: 1,179.7 km
Inclination: 71.0 °
Period: 105.2 minutes
Semi major axis: 7384 km
RCS: 0.0925 m2 (small)
Launch date: June 10, 2004
Source: Commonwealth of Independent States (former USSR) (CIS)
Launch site: TYURATAM MISSILE AND SPACE COMPLEX (TTMTR)

Note: This is SATELLITE DEBRIS
Your satellite tracking list
SL-16 R/B
Track 1 satellite(s)




NASA's NSSDC Master Catalog

Two Line Element Set (TLE):
1 28355U 04021D   25185.92321994  .00000150  00000-0  18790-3 0  9994
2 28355  70.9664 130.7474 0225595  94.9517 324.3902 13.68224623 51169
Source of the keplerian elements: AFSPC